Regional Weather Roundup
Issued by NWS Lake Charles, LA

Home | Current Version | Previous Version | Text Only | Print | Product List | Glossary On
Versions: 1 2 3 4 5 6 7 8 9 10 11 12 13 14 15 16 17 18 19 20 21 22 23 24 25 26 27 28
000
ASUS44 KLCH 230410
RWRLCH
REGIONAL WEATHER ROUNDUP
NATIONAL WEATHER SERVICE LAKE CHARLES LA
1100 PM CDT MON MAY 22 2017

Note: "fair" indicates few or no clouds below 12,000 feet with no
significant weather and/or obstructions to visibility.


ACROSS SOUTHEAST TEXAS

CITY           SKY/WX    TMP DP  RH WIND       PRES   REMARKS
BEAUMONT       CLOUDY    70  66  87 N7        29.85S
BEAUMONT CITY  CLOUDY    69  66  89 MISG      29.87S
ORANGE         MOCLDY    69  69  99 CALM      29.87S
JASPER           N/A     67  65  96 N5        29.90F
$$

ACROSS CENTRAL LOUISIANA

CITY           SKY/WX    TMP DP  RH WIND       PRES   REMARKS
LEESVILLE      LGT RAIN  66  64  94 N6        29.87S VSB 7/8
FULLERTON      LGT RAIN  67  66  97 VRB3      29.85S FOG
ALEXANDRIA INT LGT RAIN  66  66 100 N6        29.86S FOG
ESLER FIELD    LGT RAIN  67  67 100 NE6       29.87S
DERIDDER       CLOUDY   N/A N/A N/A N5        29.89F
OAKDALE        CLOUDY    69  68  96 CALM      29.85F
OPELOUSAS      CLOUDY    70  69  97 SE5       29.84F
$$

ACROSS SOUTHWEST AND SOUTH CENTRAL LOUISIANA

CITY           SKY/WX    TMP DP  RH WIND       PRES   REMARKS
SULPHUR        CLOUDY    72  72  99 N3        29.86S
LAKE CHARLES   CLOUDY    72  70  93 N5        29.85R
CHENNAULT INT  NOT AVBL
CAMERON PHI    CLEAR     70  70 100 CALM      29.85R
DEQUINCY       CLOUDY    68  68  99 N5        29.86F
JENNINGS       FAIR      70  69  97 CALM      29.85R
LAFAYETTE      CLOUDY    73  72  96 SW3       29.85S
NEW IBERIA     CLOUDY    73  70  90 S18G25    29.83F
ABBEVILLE      NOT AVBL
PATTERSON      CLOUDY    72  71  97 S6        29.87S
SALT POINT       N/A     74  72  93 VRB5      29.85R
$$

SELECTED SITES ACROSS THE REGION

CITY           SKY/WX    TMP DP  RH WIND       PRES   REMARKS
HOUSTON BUSH   CLOUDY    69  64  84 N9        29.88S
HOUSTON HOBBY  CLOUDY    69  65  86 N13       29.87R
GALVESTON      CLOUDY    74  70  87 N15       29.88R
COLLEGE STAT   CLOUDY    69  65  86 NE9       29.91R
CONROE         CLOUDY    67  63  87 N3        29.89S
HUNTSVILLE     CLOUDY    66  64  93 CALM      29.91S
LUFKIN         CLOUDY    64  62  93 N6        29.90F
SHREVEPORT     CLOUDY    62  61  96 NE9       29.92F
MONROE         CLOUDY    63  62  97 NE5       29.93S
NATCHEZ MS     LGT RAIN  68  66  93 SW5       29.89F
BATON ROUGE    CLOUDY    71  69  93 SE7       29.85F
N.O. INTL ARPT LGT RAIN  72  71  97 SE10      29.88F
SLIDELL        LGT RAIN  72  71  97 E3        29.89F
$$

MARINE REPORTS

STATION/POSITION TIME  SKY/WX   TEMP    WIND        PRES    VSBY
                                AIR SEA DIR/SP/G
                 (UTC)          (F)     (DEG/KT/KT) (MB)    (MI)
BUOY 30 S HIGH I 0350            73 79  350/ 12/ 16 1011.2R
WVE H/P(F/S)=  3/ 7

SEA RIM ST PARK  0400            69     350/  5/  6 1011.7R
PORT ARTHUR      0348            70 80  360/  7/  9 1011.3R
SABINE PASS N    0348            72 82  340/  6/  9 1012.5R
TEXAS POINT      NOT AVBL
CALCASIEU PASS   0348            71 80  320/  5/  6   N/A
LK CHARLES BEACH 0348            71 76              1011.3R
MARSH ISLAND     0300            78                   N/A
FRESH WATER LOCK 0348            74 81  260/  7/ 14 1010.8R
AMERADA PASS     0348            74 73  140/  9/ 14 1011.0R
$$




USA.gov is the U.S. government's official web portal to all federal, state and local government web resources and services.